{"data":{"norad_id":58463,"intl_designator":"2023-185B","name":"KORSAT-7","alt_names":[],"object_type":"PAYLOAD","status":"ACTIVE","operator":null,"country":"SKOR","launch_date":"2023-12-01","launch_site_code":"AFWTR","launch_vehicle":null,"mission":null,"orbit_class":"UNKNOWN","rcs_meters":null,"size_class":null,"mass_kg":null,"dimensions":null,"purposes":[],"wikipedia_slug":null,"has_3d_model":false,"image_url":null,"decayed_at":null,"tle_current":{"epoch":"2026-05-25T04:27:43.850016Z","epoch_age_seconds":59043,"freshness":"FRESH","line1":"1 58463U 23185B   26145.18592419  .00001591  00000+0  12927-3 0  9991","line2":"2 58463  97.6293 209.9072 0026643  42.3754 317.9521 15.00764374135834","mean_motion":15.00764374,"eccentricity":0.0026643,"inclination_deg":97.6293,"raan_deg":209.9072,"arg_perigee_deg":42.3754,"mean_anomaly_deg":317.9521,"bstar":0.00012927,"rev_number":13583,"period_min":95.951104980055,"perigee_km":546.04059912318,"apogee_km":583.03533695788,"semimajor_km":6942.6749680405,"source":"CELESTRAK","updated_at":"2026-05-25T13:38:00.764463Z"}}}